Weather History for Nadi, Fiji

Change the Weather History Date:

Thursday, January 17, 2013

  Actual Average Record
Temperature  
Mean Temperature 82 °F -  
Max Temperature 90 °F 86 °F 93 °F (2003)
Min Temperature 73 °F 73 °F 73 °F (1997)
Cooling Degree Days 16    
Growing Degree Days 32 (Base 50)    
Moisture  
Dew Point 74 °F    
Average Humidity 75    
Maximum Humidity 100    
Minimum Humidity 48    
Precipitation  
Precipitation 0.00 in 0.40 in - ()
Sea Level Pressure  
Sea Level Pressure 29.64 in    
Wind  
Wind Speed 5 mph ()    
Max Wind Speed 13 mph    
Max Gust Speed -    
Visibility 12.0 miles    
Events      
Averages and records for this station are not official NWS values.
T = Trace of Precipitation, MM = Missing Value Source: Averaged Metar Reports

Daily Weather History Graph

Daily Weather History Graph

Search for Another Location

Airport:

Trip Planner

Search our weather history database for the weather conditions in past years. The results will help you decide how hot, cold, wet, or windy it might be!

Date:

Astronomy

Jan. 17, 2013 Rise Set
Actual Time 6:48 AM FJST 7:51 PM FJST
Civil Twilight 6:24 AM FJST 8:15 PM FJST
Nautical Twilight 5:56 AM FJST 8:43 PM FJST
Astronomical Twilight 5:28 AM FJST 9:11 PM FJST
Moon 11:37 AM FJST (1/17) 11:43 PM FJST (1/17)
Length of Visible Light 13h 50m
Length of Day
13h 03m
Waxing Crescent, 30% of the Moon is Illuminated
Jan 17
Waxing Crescent
Jan 19
First Quarter
Jan 27
Full
Feb 4
Last Quarter
Feb 10
New

Hourly Weather History & Observations

Time (FJST) Temp. Heat Index Dew Point Humidity Pressure Visibility Wind Dir Wind Speed Gust Speed Precip Events Conditions
12:00 AM 80.6 °F 86.2 °F 75.2 °F 84% 29.71 in 28.0 mi South 4.6 mph - N/A   Partly Cloudy
1:00 AM 79 °F - 75 °F 84% 29.69 in 12 mi South 5.8 mph - -   Partly Cloudy
1:00 AM 78.8 °F - 75.2 °F 89% 29.68 in 24.9 mi South 5.8 mph - N/A   Partly Cloudy
2:00 AM 77.0 °F - 75.2 °F 94% 29.65 in 24.9 mi South 5.8 mph - N/A   Partly Cloudy
3:00 AM 77.0 °F - 73.4 °F 89% 29.62 in 24.9 mi South 5.8 mph - N/A   Partly Cloudy
4:00 AM 76 °F - 73 °F 89% 29.63 in 12 mi Calm Calm - -   Partly Cloudy
4:00 AM 77.0 °F - 73.4 °F 89% 29.62 in 24.9 mi Calm Calm - N/A   Partly Cloudy
5:00 AM 75.2 °F - 73.4 °F 94% 29.62 in 24.9 mi SE 4.6 mph - N/A   Partly Cloudy
6:00 AM 73.4 °F - 73.4 °F 100% 29.65 in 24.9 mi South 5.8 mph - N/A   Partly Cloudy
7:00 AM 73 °F - 72 °F 95% 29.66 in 12 mi SSE 5.8 mph - -   Partly Cloudy
7:00 AM 73.4 °F - 71.6 °F 94% 29.65 in 28.0 mi SSE 5.8 mph - N/A   Scattered Clouds
8:00 AM 77.0 °F - 73.4 °F 89% 29.65 in 31.1 mi ESE 3.5 mph - N/A   Mostly Cloudy
9:00 AM 82.4 °F 89.5 °F 75.2 °F 79% 29.65 in 31.1 mi SE 6.9 mph - N/A   Mostly Cloudy
10:00 AM 84 °F - 74 °F 65% 29.67 in 31 mi SSE 3.5 mph - -   Partly Cloudy
10:00 AM 84.2 °F 90.9 °F 73.4 °F 70% 29.65 in 31.1 mi SSE 3.5 mph - N/A   Mostly Cloudy
11:00 AM 86.0 °F 93.4 °F 73.4 °F 66% 29.65 in 31.1 mi SE 3.5 mph - N/A   Mostly Cloudy
12:00 PM 87.8 °F 93.8 °F 71.6 °F 58% 29.62 in 31.1 mi SE 8.1 mph - N/A   Mostly Cloudy
1:00 PM 90 °F - 73 °F 48% 29.62 in 31 mi SSE 5.8 mph - -   Partly Cloudy
1:00 PM 89.6 °F 98.2 °F 73.4 °F 59% 29.62 in 31.1 mi SSE 5.8 mph - N/A   Mostly Cloudy
2:00 PM 89.6 °F 99.8 °F 75.2 °F 62% 29.62 in 31.1 mi WNW 10.4 mph - N/A   Mostly Cloudy
3:00 PM 87.8 °F 97.6 °F 75.2 °F 66% 29.62 in 31.1 mi WNW 12.7 mph - N/A   Mostly Cloudy
4:00 PM 88 °F - 74 °F 54% 29.62 in 31 mi WNW 12.7 mph - -   Partly Cloudy
4:00 PM 87.8 °F 95.6 °F 73.4 °F 62% 29.62 in 31.1 mi WNW 12.7 mph - N/A   Scattered Clouds
5:00 PM 87.8 °F 95.6 °F 73.4 °F 62% 29.59 in 31.1 mi West 8.1 mph - N/A   Scattered Clouds
6:00 PM 87.8 °F 95.6 °F 73.4 °F 62% 29.59 in 31.1 mi SSW 9.2 mph - N/A   Scattered Clouds
7:00 PM 87 °F - 73 °F 54% 29.63 in 31 mi SSW 6.9 mph - -   Partly Cloudy
7:00 PM 86.0 °F 93.4 °F 73.4 °F 66% 29.62 in 31.1 mi SSW 6.9 mph - N/A   Scattered Clouds
8:00 PM 84.2 °F 89.6 °F 71.6 °F 66% 29.62 in 31.1 mi South 3.5 mph - N/A   Partly Cloudy
9:00 PM 82.4 °F 87.2 °F 71.6 °F 70% 29.65 in 24.9 mi SSW 4.6 mph - N/A   Scattered Clouds
10:00 PM 81 °F - 73 °F 71% 29.68 in 12 mi Calm Calm - -   Partly Cloudy
10:00 PM 80.6 °F 85.4 °F 73.4 °F 79% 29.68 in 24.9 mi Calm Calm - N/A   Mostly Cloudy
11:00 PM 78.8 °F - 73.4 °F 83% 29.68 in 24.9 mi SSE 4.6 mph - N/A   Mostly Cloudy